Weather in Wichita

United States     37°40′10″N   97°20′36″W
temp.,
°C
wind,
m/s
gust,
m/s
humid.,
%
clouds,
%
prec.,
mm/h
press.,
hPa
HPBL,
m
18 september, sat
sat1801:00+22e357213 0.1 1019135
04:00+21ene12850 0.0 102076
07:00+21ne11850 0.0 102041
10:00+26e22640 0.0 1020462
13:00+31ese34380 0.0 10181639
16:00+33ese54330 0.0 10152240
19:00+30ese56380 0.0 1015771
22:00+25ese410580 0.0 1016282
19 september, sun
sun1901:00+23se411600 0.0 1016329
04:00+22se38710 0.0 1015205
07:00+21sse36810 0.0 1015172
10:00+26sse56630 0.0 1014513
13:00+31s55365 0.0 10111394
16:00+34s55240 0.0 10081875
19:00+31sse36270 0.0 1006169
22:00+27se614393 0.0 1007424
20 september, mon
mon2001:00+26sse8175597 0.0 1007665
04:00+25s71761100 0.1 1006683
07:00+25s818597 0.1 1005793
10:00+28ssw8154619 0.0 1005933
13:00+34sw79240 0.0 10041555
16:00+34wnw56261 0.0 10041681
19:00+28nnw911460 0.0 1008963
22:00+23n9155348 0.0 1013879
21 september, tue
tue2101:00+19nne7156214 0.1 1017824
04:00+17nne6156780 0.3 1020778
07:00+17n61257100 0.4 1022825
10:00+20nne711410 0.0 10251023
13:00+24n710240 0.0 10251844
16:00+26n68220 0.0 10232454
19:00+23n46270 0.0 10231263
22:00+20nnw23350 0.0 102580
22 september, wed
wed2201:00+17e34400 0.0 102584
04:00+17s24370 0.0 1025114
07:00+16ssw24370 0.0 1026109
10:00+21sw35270 0.0 1026489
13:00+26sw43220 0.0 10241518
16:00+27s32190 0.0 10211966
19:00+25s35230 0.0 1020402
22:00+21se47270 0.0 1021139